| time (UTC) | temp C | wind direction | speed KPH | gust KPH | rain 1hr cm | rain 24hr cm | rain mn cm | humidity % | barometer mb |
| 20260505111418 | -17 | 0.0 | 0.0 | 0.00 | 0.00 | 0.00 | 1016.7 | ||
| 20260505110913 | -17 | 0.0 | 0.0 | 0.00 | 0.00 | 0.00 | 1016.5 | ||
| 20260505110412 | -17 | 0.0 | 0.0 | 0.00 | 0.00 | 0.00 | 1016.5 | ||
| 20260505102111 | -17 | 0.0 | 0.0 | 0.00 | 0.00 | 0.00 | 1016.0 | ||
| 20260505101609 | -17 | 0.0 | 0.0 | 0.00 | 0.00 | 0.00 | 1016.0 | ||
| 20260505101109 | -17 | 0.0 | 0.0 | 0.00 | 0.00 | 0.00 | 1015.9 | ||
| 20260505100514 | -17 | 0.0 | 0.0 | 0.00 | 0.00 | 0.00 | 1015.9 | ||
| 20260505100014 | -17 | 0.0 | 0.0 | 0.00 | 0.00 | 0.00 | 1015.8 | ||
| 20260505100009 | -17 | 0.0 | 0.0 | 0.00 | 0.00 | 0.00 | 1015.9 | ||
| 20260505095008 | -17 | 0.0 | 0.0 | 0.00 | 0.00 | 0.00 | 1015.7 | ||
| 20260505094507 | -17 | 0.0 | 0.0 | 0.00 | 0.00 | 0.00 | 1015.8 | ||
| 20260505094003 | -17 | 0.0 | 0.0 | 0.00 | 0.00 | 0.00 | 1015.8 | ||
| 20260505093915 | -17 | 0.0 | 0.0 | 0.00 | 0.00 | 0.00 | 1015.7 | ||
| 20260505092915 | -17 | 0.0 | 0.0 | 0.00 | 0.00 | 0.00 | 1015.8 | ||
| 20260505092415 | -17 | 0.0 | 0.0 | 0.00 | 0.00 | 0.00 | 1015.8 | ||
| 20260505091905 | -17 | 0.0 | 0.0 | 0.00 | 0.00 | 0.00 | 1015.7 | ||
| 20260505091359 | -17 | 0.0 | 0.0 | 0.00 | 0.00 | 0.00 | 1015.7 | ||
| 20260505090809 | -17 | 0.0 | 0.0 | 0.00 | 0.00 | 0.00 | 1015.6 | ||
| 20260505090304 | -17 | 0.0 | 0.0 | 0.00 | 0.00 | 0.00 | 1015.6 | ||
| 20260505085717 | -17 | 0.0 | 0.0 | 0.00 | 0.00 | 0.00 | 1015.6 | ||
| 20260505085211 | -17 | 0.0 | 0.0 | 0.00 | 0.00 | 0.00 | 1015.5 | ||
| 20260505084712 | 12 | 344 | 0.0 | 0.0 | 0.00 | 0.00 | 0.00 | 76 | 1015.5 |
| 20260505084706 | 12 | 344 | 0.0 | 0.0 | 0.00 | 0.00 | 0.00 | 76 | 1015.5 |
| 20260505083637 | 12 | 344 | 0.0 | 0.0 | 0.00 | 0.00 | 0.00 | 76 | 1015.5 |
| 20260505083633 | 12 | 344 | 0.0 | 0.0 | 0.00 | 0.00 | 0.00 | 76 | 1015.4 |
| 20260505082632 | 13 | 344 | 0.0 | 0.0 | 0.00 | 0.00 | 0.00 | 76 | 1015.4 |
| 20260505082134 | 13 | 339 | 0.0 | 0.0 | 0.00 | 0.00 | 0.00 | 75 | 1015.5 |
| 20260505082130 | 13 | 344 | 0.0 | 0.0 | 0.00 | 0.00 | 0.00 | 76 | 1015.4 |
| 20260505081128 | 13 | 339 | 0.0 | 0.0 | 0.00 | 0.00 | 0.00 | 75 | 1015.4 |
| 20260505080630 | 13 | 116 | 0.0 | 0.0 | 0.00 | 0.00 | 0.00 | 75 | 1015.4 |
| 20260505080130 | 14 | 116 | 0.0 | 0.0 | 0.00 | 0.00 | 0.00 | 74 | 1015.3 |
| 20260505075629 | 14 | 116 | 0.0 | 0.0 | 0.00 | 0.00 | 0.00 | 73 | 1015.2 |
| 20260505075130 | 14 | 116 | 0.0 | 0.0 | 0.00 | 0.00 | 0.00 | 73 | 1015.2 |
| 20260505074628 | 14 | 116 | 0.0 | 0.0 | 0.00 | 0.00 | 0.00 | 73 | 1015.2 |
| 20260505074129 | 14 | 126 | 0.0 | 0.0 | 0.00 | 0.00 | 0.00 | 72 | 1015.2 |
| 20260505073629 | 14 | 140 | 0.0 | 0.0 | 0.00 | 0.00 | 0.00 | 72 | 1015.1 |
| 20260505073129 | 15 | 129 | 0.0 | 0.0 | 0.00 | 0.00 | 0.00 | 72 | 1015.1 |
| 20260505072631 | 15 | 140 | 0.0 | 0.0 | 0.00 | 0.00 | 0.00 | 72 | 1015.2 |
| 20260505072129 | 15 | 141 | 0.0 | 0.0 | 0.00 | 0.00 | 0.00 | 71 | 1015.2 |
| 20260505071629 | 15 | 139 | 0.0 | 0.0 | 0.00 | 0.00 | 0.00 | 71 | 1015.1 |
| 20260505071129 | 15 | 133 | 0.0 | 0.0 | 0.00 | 0.00 | 0.00 | 71 | 1015.1 |
| 20260505070628 | 15 | 112 | 0.0 | 0.0 | 0.00 | 0.00 | 0.00 | 71 | 1015.1 |
| 20260505070128 | 15 | 262 | 0.0 | 3.2 | 0.00 | 0.00 | 0.00 | 71 | 1015.1 |
| 20260505065627 | 15 | 222 | 0.0 | 3.2 | 0.00 | 0.00 | 0.00 | 71 | 1015.0 |
| 20260505065131 | 15 | 126 | 0.0 | 0.0 | 0.00 | 0.00 | 0.00 | 71 | 1015.1 |
| 20260505064627 | 15 | 144 | 0.0 | 0.0 | 0.00 | 0.00 | 0.00 | 70 | 1015.1 |
| 20260505064127 | 15 | 118 | 0.0 | 0.0 | 0.00 | 0.00 | 0.00 | 70 | 1015.1 |
| 20260505063626 | 15 | 92 | 0.0 | 0.0 | 0.00 | 0.00 | 0.00 | 70 | 1015.0 |
| 20260505063128 | 15 | 75 | 0.0 | 0.0 | 0.00 | 0.00 | 0.00 | 70 | 1015.0 |
| 20260505062628 | 15 | 238 | 0.0 | 0.0 | 0.00 | 0.00 | 0.00 | 69 | 1015.0 |
| 20260505062128 | 15 | 124 | 0.0 | 0.0 | 0.00 | 0.00 | 0.00 | 69 | 1015.1 |
| 20260505061627 | 15 | 148 | 0.0 | 0.0 | 0.00 | 0.00 | 0.00 | 69 | 1015.0 |
| 20260505061125 | 16 | 266 | 0.0 | 4.8 | 0.00 | 0.00 | 0.00 | 69 | 1015.1 |
| 20260505060626 | 16 | 110 | 0.0 | 4.8 | 0.00 | 0.00 | 0.00 | 68 | 1015.1 |
| 20260505060232 | 16 | 212 | 0.0 | 4.8 | 0.00 | 0.00 | 0.00 | 68 | 1015.1 |
| 20260505060128 | 16 | 133 | 0.0 | 3.2 | 0.00 | 0.00 | 0.00 | 68 | 1015.1 |
| 20260505060124 | 16 | 128 | 0.0 | 3.2 | 0.00 | 0.00 | 0.00 | 68 | 1015.1 |
| 20260505054621 | 16 | 214 | 0.0 | 4.8 | 0.00 | 0.00 | 0.00 | 68 | 1015.1 |
| 20260505054127 | 16 | 170 | 1.6 | 8.0 | 0.00 | 0.00 | 0.00 | 68 | 1015.1 |
| 20260505054122 | 16 | 231 | 0.0 | 6.4 | 0.00 | 0.00 | 0.00 | 68 | 1015.1 |
| 20260505053120 | 16 | 269 | 0.0 | 8.0 | 0.00 | 0.00 | 0.00 | 68 | 1015.2 |
| 20260505052620 | 16 | 135 | 0.0 | 0.0 | 0.00 | 0.00 | 0.00 | 68 | 1015.3 |
| 20260505052122 | 16 | 142 | 0.0 | 0.0 | 0.00 | 0.00 | 0.00 | 68 | 1015.2 |
| 20260505051621 | 16 | 144 | 0.0 | 8.0 | 0.00 | 0.00 | 0.00 | 68 | 1015.3 |
| 20260505051120 | 16 | 104 | 0.0 | 8.0 | 0.00 | 0.00 | 0.00 | 68 | 1015.4 |
| 20260505050619 | 16 | 110 | 1.6 | 8.0 | 0.00 | 0.00 | 0.00 | 68 | 1015.4 |
| 20260505050124 | 16 | 103 | 1.6 | 9.7 | 0.00 | 0.00 | 0.00 | 67 | 1015.4 |
| 20260505050120 | 16 | 149 | 1.6 | 8.0 | 0.00 | 0.00 | 0.00 | 67 | 1015.4 |
| 20260505041618 | 17 | 149 | 0.0 | 8.0 | 0.00 | 0.00 | 0.00 | 66 | 1015.3 |
| 20260505041123 | 17 | 141 | 3.2 | 12.9 | 0.00 | 0.00 | 0.00 | 65 | 1015.3 |
| 20260505041119 | 17 | 270 | 1.6 | 12.9 | 0.00 | 0.00 | 0.00 | 66 | 1015.2 |
| 20260505040119 | 17 | 271 | 1.6 | 11.3 | 0.00 | 0.00 | 0.00 | 65 | 1015.4 |
| 20260505035619 | 17 | 274 | 1.6 | 9.7 | 0.00 | 0.00 | 0.00 | 65 | 1015.3 |
| 20260505035120 | 17 | 180 | 1.6 | 11.3 | 0.00 | 0.00 | 0.00 | 65 | 1015.3 |
| 20260505034620 | 17 | 203 | 1.6 | 11.3 | 0.00 | 0.00 | 0.00 | 65 | 1015.3 |
| 20260505034118 | 17 | 150 | 1.6 | 12.9 | 0.00 | 0.00 | 0.00 | 65 | 1015.3 |
| 20260505033618 | 17 | 145 | 3.2 | 12.9 | 0.00 | 0.00 | 0.00 | 64 | 1015.3 |
| 20260505033118 | 18 | 276 | 3.2 | 9.7 | 0.00 | 0.00 | 0.00 | 64 | 1015.3 |
| 20260505032619 | 18 | 138 | 1.6 | 9.7 | 0.00 | 0.00 | 0.00 | 64 | 1015.2 |
| 20260505032120 | 18 | 132 | 1.6 | 12.9 | 0.00 | 0.00 | 0.00 | 63 | 1015.2 |
| 20260505031616 | 18 | 127 | 3.2 | 16.1 | 0.00 | 0.00 | 0.00 | 63 | 1015.2 |
| 20260505031118 | 18 | 111 | 3.2 | 12.9 | 0.00 | 0.00 | 0.00 | 62 | 1015.3 |
| 20260505031114 | 18 | 129 | 1.6 | 16.1 | 0.00 | 0.00 | 0.00 | 63 | 1015.2 |
| 20260505030721 | 18 | 319 | 1.6 | 11.3 | 0.00 | 0.00 | 0.00 | 63 | 1015.2 |
| 20260505025611 | 18 | 146 | 3.2 | 12.9 | 0.00 | 0.00 | 0.00 | 62 | 1015.3 |
| 20260505025110 | 18 | 195 | 3.2 | 14.5 | 0.00 | 0.00 | 0.00 | 62 | 1015.3 |
| 20260505024611 | 18 | 148 | 3.2 | 14.5 | 0.00 | 0.00 | 0.00 | 61 | 1015.3 |
| 20260505024109 | 18 | 156 | 4.8 | 12.9 | 0.00 | 0.00 | 0.00 | 61 | 1015.3 |
| 20260505023608 | 19 | 131 | 3.2 | 12.9 | 0.00 | 0.00 | 0.00 | 61 | 1015.2 |
| 20260505023110 | 19 | 240 | 4.8 | 12.9 | 0.00 | 0.00 | 0.00 | 61 | 1015.2 |
| 20260505022608 | 19 | 90 | 4.8 | 19.3 | 0.00 | 0.00 | 0.00 | 60 | 1015.1 |
| 20260505022108 | 19 | 131 | 3.2 | 19.3 | 0.00 | 0.00 | 0.00 | 60 | 1015.1 |
| 20260505021609 | 19 | 148 | 3.2 | 11.3 | 0.00 | 0.00 | 0.00 | 60 | 1015.1 |
| 20260505021108 | 20 | 147 | 3.2 | 12.9 | 0.00 | 0.00 | 0.00 | 60 | 1015.1 |
| 20260505020609 | 20 | 289 | 3.2 | 12.9 | 0.00 | 0.00 | 0.00 | 60 | 1015.1 |
| 20260505020110 | 20 | 28 | 4.8 | 16.1 | 0.00 | 0.00 | 0.00 | 60 | 1015.1 |
| 20260505015610 | 20 | 110 | 3.2 | 16.1 | 0.00 | 0.00 | 0.00 | 59 | 1015.0 |
| 20260505015108 | 20 | 139 | 1.6 | 8.0 | 0.00 | 0.00 | 0.00 | 59 | 1014.9 |
| 20260505014608 | 20 | 180 | 3.2 | 11.3 | 0.00 | 0.00 | 0.00 | 58 | 1014.8 |
| 20260505014108 | 20 | 131 | 3.2 | 20.9 | 0.00 | 0.00 | 0.00 | 57 | 1014.8 |
| 20260505013611 | 20 | 123 | 4.8 | 16.1 | 0.00 | 0.00 | 0.00 | 54 | 1014.7 |
| 20260505013607 | 20 | 159 | 3.2 | 20.9 | 0.00 | 0.00 | 0.00 | 56 | 1014.7 |
| 20260505012606 | 20 | 131 | 4.8 | 16.1 | 0.00 | 0.00 | 0.00 | 53 | 1014.5 |
| 20260505012107 | 21 | 148 | 3.2 | 14.5 | 0.00 | 0.00 | 0.00 | 51 | 1014.4 |
| 20260505011604 | 21 | 319 | 1.6 | 14.5 | 0.00 | 0.00 | 0.00 | 48 | 1014.3 |
| 20260505011104 | 21 | 130 | 0.0 | 11.3 | 0.00 | 0.00 | 0.00 | 46 | 1014.2 |
| 20260505010607 | 21 | 134 | 0.0 | 0.0 | 0.00 | 0.00 | 0.00 | 45 | 1014.2 |
| 20260505010603 | 21 | 142 | 0.0 | 0.0 | 0.00 | 0.00 | 0.00 | 44 | 1013.9 |
| 20260505010208 | 21 | 129 | 0.0 | 0.0 | 0.00 | 0.00 | 0.00 | 44 | 1014.0 |
| 20260505005100 | 21 | 129 | 0.0 | 0.0 | 0.00 | 0.00 | 0.00 | 43 | 1013.8 |
| 20260505004605 | 21 | 146 | 0.0 | 0.0 | 0.00 | 0.00 | 0.00 | 44 | 1013.7 |
| 20260505004110 | 21 | 124 | 0.0 | 0.0 | 0.00 | 0.00 | 0.00 | 44 | 1013.8 |
| 20260505003602 | 21 | 92 | 0.0 | 0.0 | 0.00 | 0.00 | 0.00 | 43 | 1013.7 |
| 20260505003100 | 21 | 120 | 0.0 | 0.0 | 0.00 | 0.00 | 0.00 | 42 | 1013.7 |
| 20260505002600 | 22 | 214 | 0.0 | 0.0 | 0.00 | 0.00 | 0.00 | 42 | 1013.7 |
| 20260505002101 | 22 | 140 | 0.0 | 0.0 | 0.00 | 0.00 | 0.00 | 41 | 1013.6 |
| 20260505001600 | 22 | 110 | 0.0 | 0.0 | 0.00 | 0.00 | 0.00 | 41 | 1013.6 |
| 20260505001104 | 22 | 139 | 0.0 | 0.0 | 0.00 | 0.00 | 0.00 | 40 | 1013.5 |
| 20260505001100 | 22 | 118 | 0.0 | 0.0 | 0.00 | 0.00 | 0.00 | 40 | 1013.6 |
| 20260505000058 | 22 | 126 | 0.0 | 0.0 | 0.00 | 0.00 | 0.00 | 40 | 1013.5 |
| 20260504235603 | 23 | 166 | 0.0 | 0.0 | 0.00 | 0.00 | 0.00 | 39 | 1013.4 |
| 20260504235559 | 23 | 115 | 0.0 | 0.0 | 0.00 | 0.00 | 0.00 | 39 | 1013.4 |
| 20260504234559 | 23 | 118 | 0.0 | 0.0 | 0.00 | 0.00 | 0.00 | 38 | 1013.3 |
| 20260504234058 | 23 | 87 | 1.6 | 8.0 | 0.00 | 0.00 | 0.00 | 38 | 1013.2 |
| 20260504233558 | 23 | 150 | 1.6 | 12.9 | 0.00 | 0.00 | 0.00 | 37 | 1013.2 |
| 20260504233107 | 23 | 290 | 3.2 | 11.3 | 0.00 | 0.00 | 0.00 | 36 | 1013.1 |
| 20260504233101 | 23 | 144 | 3.2 | 12.9 | 0.00 | 0.00 | 0.00 | 37 | 1013.1 |
| 20260504232058 | 23 | 77 | 1.6 | 9.7 | 0.00 | 0.00 | 0.00 | 36 | 1013.1 |
| 20260504231559 | 24 | 139 | 1.6 | 9.7 | 0.00 | 0.00 | 0.00 | 36 | 1013.0 |
| 20260504231102 | 24 | 131 | 1.6 | 11.3 | 0.00 | 0.00 | 0.00 | 35 | 1013.0 |
| 20260504231058 | 24 | 244 | 1.6 | 11.3 | 0.00 | 0.00 | 0.00 | 35 | 1013.0 |
| 20260504230059 | 24 | 135 | 3.2 | 11.3 | 0.00 | 0.00 | 0.00 | 35 | 1012.9 |
| 20260504225558 | 24 | 171 | 1.6 | 11.3 | 0.00 | 0.00 | 0.00 | 35 | 1012.9 |
| 20260504225101 | 24 | 74 | 3.2 | 14.5 | 0.00 | 0.00 | 0.00 | 36 | 1012.9 |
| 20260504224602 | 25 | 144 | 4.8 | 17.7 | 0.00 | 0.00 | 0.00 | 35 | 1012.9 |
| 20260504224058 | 25 | 124 | 3.2 | 17.7 | 0.00 | 0.00 | 0.00 | 34 | 1012.9 |
| 20260504223600 | 25 | 176 | 3.2 | 17.7 | 0.00 | 0.00 | 0.00 | 35 | 1012.9 |
| 20260504223059 | 25 | 139 | 3.2 | 14.5 | 0.00 | 0.00 | 0.00 | 35 | 1012.8 |
| 20260504222557 | 25 | 149 | 3.2 | 12.9 | 0.00 | 0.00 | 0.00 | 34 | 1012.9 |
| 20260504222056 | 25 | 170 | 3.2 | 17.7 | 0.00 | 0.00 | 0.00 | 34 | 1012.9 |
| 20260504221601 | 25 | 103 | 3.2 | 14.5 | 0.00 | 0.00 | 0.00 | 32 | 1012.9 |
| 20260504221556 | 25 | 118 | 3.2 | 17.7 | 0.00 | 0.00 | 0.00 | 33 | 1013.0 |
| 20260504220555 | 26 | 226 | 3.2 | 14.5 | 0.00 | 0.00 | 0.00 | 33 | 1012.8 |
| 20260504220056 | 26 | 180 | 1.6 | 14.5 | 0.00 | 0.00 | 0.00 | 31 | 1012.9 |
| 20260504215556 | 26 | 137 | 1.6 | 11.3 | 0.00 | 0.00 | 0.00 | 31 | 1012.9 |
| 20260504215206 | 27 | 165 | 1.6 | 9.7 | 0.00 | 0.00 | 0.00 | 28 | 1012.9 |
| 20260504215100 | 26 | 128 | 0.0 | 0.0 | 0.00 | 0.00 | 0.00 | 29 | 1012.9 |
| 20260504215056 | 26 | 67 | 0.0 | 0.0 | 0.00 | 0.00 | 0.00 | 30 | 1012.9 |
| 20260504213558 | 27 | 245 | 1.6 | 14.5 | 0.00 | 0.00 | 0.00 | 29 | 1012.9 |
| 20260504213553 | 27 | 179 | 1.6 | 12.9 | 0.00 | 0.00 | 0.00 | 30 | 1013.0 |
| 20260504212556 | 27 | 99 | 3.2 | 20.9 | 0.00 | 0.00 | 0.00 | 28 | 1013.0 |
| 20260504212052 | 27 | 130 | 3.2 | 20.9 | 0.00 | 0.00 | 0.00 | 29 | 1013.0 |
| 20260504211552 | 27 | 165 | 1.6 | 12.9 | 0.00 | 0.00 | 0.00 | 27 | 1013.0 |
| 20260504211059 | 27 | 207 | 0.0 | 6.4 | 0.00 | 0.00 | 0.00 | 28 | 1013.0 |
| 20260504211054 | 27 | 127 | 0.0 | 11.3 | 0.00 | 0.00 | 0.00 | 28 | 1012.9 |
| 20260504210049 | 27 | 142 | 1.6 | 8.0 | 0.00 | 0.00 | 0.00 | 26 | 1013.0 |
| 20260504205550 | 27 | 134 | 1.6 | 8.0 | 0.00 | 0.00 | 0.00 | 27 | 1013.1 |
| 20260504205050 | 27 | 303 | 1.6 | 8.0 | 0.00 | 0.00 | 0.00 | 26 | 1013.1 |
| 20260504204552 | 27 | 306 | 0.0 | 6.4 | 0.00 | 0.00 | 0.00 | 26 | 1013.2 |
| 20260504204049 | 27 | 169 | 1.6 | 8.0 | 0.00 | 0.00 | 0.00 | 26 | 1013.2 |
| 20260504203548 | 27 | 117 | 4.8 | 17.7 | 0.00 | 0.00 | 0.00 | 26 | 1013.2 |
| 20260504203049 | 27 | 84 | 4.8 | 17.7 | 0.00 | 0.00 | 0.00 | 27 | 1013.3 |
| 20260504202547 | 27 | 150 | 1.6 | 12.9 | 0.00 | 0.00 | 0.00 | 27 | 1013.4 |
| 20260504202048 | 27 | 139 | 1.6 | 11.3 | 0.00 | 0.00 | 0.00 | 26 | 1013.3 |
| 20260504201549 | 27 | 328 | 3.2 | 14.5 | 0.00 | 0.00 | 0.00 | 26 | 1013.4 |
| 20260504201054 | 27 | 171 | 3.2 | 16.1 | 0.00 | 0.00 | 0.00 | 26 | 1013.7 |
| 20260504201047 | 27 | 108 | 4.8 | 16.1 | 0.00 | 0.00 | 0.00 | 27 | 1013.6 |
| 20260504200046 | 27 | 129 | 1.6 | 16.1 | 0.00 | 0.00 | 0.00 | 25 | 1013.5 |
| 20260504195546 | 27 | 139 | 0.0 | 0.0 | 0.00 | 0.00 | 0.00 | 29 | 1013.6 |
| 20260504195045 | 27 | 142 | 0.0 | 6.4 | 0.00 | 0.00 | 0.00 | 29 | 1013.6 |
| 20260504194552 | 27 | 103 | 3.2 | 16.1 | 0.00 | 0.00 | 0.00 | 27 | 1013.5 |
| 20260504194547 | 27 | 204 | 1.6 | 16.1 | 0.00 | 0.00 | 0.00 | 29 | 1013.6 |
| 20260504193546 | 26 | 207 | 3.2 | 14.5 | 0.00 | 0.00 | 0.00 | 29 | 1013.6 |
| 20260504193046 | 27 | 318 | 3.2 | 14.5 | 0.00 | 0.00 | 0.00 | 28 | 1013.8 |
| 20260504192548 | 27 | 231 | 3.2 | 22.5 | 0.00 | 0.00 | 0.00 | 30 | 1013.7 |
| 20260504192046 | 27 | 126 | 1.6 | 22.5 | 0.00 | 0.00 | 0.00 | 28 | 1013.9 |
| 20260504191546 | 27 | 134 | 0.0 | 6.4 | 0.00 | 0.00 | 0.00 | 28 | 1014.0 |
| 20260504191045 | 27 | 27 | 0.0 | 14.5 | 0.00 | 0.00 | 0.00 | 29 | 1014.0 |
| 20260504190551 | 26 | 138 | 1.6 | 14.5 | 0.00 | 0.00 | 0.00 | 30 | 1014.1 |
| 20260504190547 | 27 | 136 | 0.0 | 8.0 | 0.00 | 0.00 | 0.00 | 31 | 1014.3 |
| 20260504185548 | 26 | 39 | 1.6 | 6.4 | 0.00 | 0.00 | 0.00 | 31 | 1014.5 |
| 20260504185544 | 27 | 257 | 0.0 | 8.0 | 0.00 | 0.00 | 0.00 | 31 | 1014.5 |
| 20260504184541 | 26 | 247 | 1.6 | 11.3 | 0.00 | 0.00 | 0.00 | 29 | 1014.3 |
| 20260504184041 | 26 | 161 | 3.2 | 20.9 | 0.00 | 0.00 | 0.00 | 31 | 1014.3 |
| 20260504183539 | 26 | 152 | 3.2 | 20.9 | 0.00 | 0.00 | 0.00 | 31 | 1014.5 |
| 20260504183037 | 26 | 8 | 0.0 | 4.8 | 0.00 | 0.00 | 0.00 | 32 | 1014.5 |
| 20260504182543 | 26 | 155 | 3.2 | 12.9 | 0.00 | 0.00 | 0.00 | 32 | 1014.7 |
| 20260504182539 | 26 | 111 | 1.6 | 12.9 | 0.00 | 0.00 | 0.00 | 31 | 1014.6 |
| 20260504181538 | 26 | 244 | 3.2 | 14.5 | 0.00 | 0.00 | 0.00 | 32 | 1014.7 |
| 20260504181039 | 26 | 211 | 3.2 | 14.5 | 0.00 | 0.00 | 0.00 | 32 | 1014.7 |
| 20260504180537 | 26 | 313 | 3.2 | 12.9 | 0.00 | 0.00 | 0.00 | 33 | 1014.5 |
| 20260504180038 | 25 | 158 | 1.6 | 12.9 | 0.00 | 0.00 | 0.00 | 32 | 1014.6 |
| 20260504175537 | 26 | 106 | 0.0 | 11.3 | 0.00 | 0.00 | 0.00 | 33 | 1014.7 |
| 20260504175037 | 25 | 201 | 1.6 | 14.5 | 0.00 | 0.00 | 0.00 | 33 | 1014.8 |
| 20260504174539 | 25 | 240 | 1.6 | 16.1 | 0.00 | 0.00 | 0.00 | 33 | 1014.9 |
| 20260504174039 | 25 | 110 | 1.6 | 16.1 | 0.00 | 0.00 | 0.00 | 33 | 1015.1 |
| 20260504173538 | 25 | 316 | 1.6 | 9.7 | 0.00 | 0.00 | 0.00 | 35 | 1015.1 |
| 20260504173039 | 25 | 134 | 0.0 | 9.7 | 0.00 | 0.00 | 0.00 | 35 | 1015.2 |
| 20260504172537 | 25 | 62 | 0.0 | 1.6 | 0.00 | 0.00 | 0.00 | 36 | 1015.3 |
| 20260504172043 | 25 | 148 | 0.0 | 4.8 | 0.00 | 0.00 | 0.00 | 38 | 1015.4 |
| 20260504172038 | 25 | 280 | 0.0 | 1.6 | 0.00 | 0.00 | 0.00 | 36 | 1015.4 |
| 20260504171039 | 25 | 277 | 0.0 | 4.8 | 0.00 | 0.00 | 0.00 | 38 | 1015.5 |
| 20260504170538 | 25 | 0 | 0.0 | 4.8 | 0.00 | 0.00 | 0.00 | 35 | 1015.5 |
| 20260504150523 | 21 | 164 | 1.6 | 14.5 | 0.00 | 0.00 | 0.00 | 54 | 1016.6 |
| 20260504141025 | 18 | 144 | 1.6 | 9.7 | 0.00 | 0.00 | 0.00 | 61 | 1016.8 |
| 20260504141022 | 18 | 139 | 0.0 | 3.2 | 0.00 | 0.00 | 0.00 | 62 | 1016.8 |